Tracking 18624 objects as of 30-April-2017
HD Live streaming from Space Station
objects crossing your sky now

CUBEBUG 2

Track CUBEBUG 2 now!
10-day predictions
CUBEBUG 2 is classified as:


NORAD ID: 39440
Int'l Code: 2013-066AA
Perigee: 593.1 km
Apogee: 708.8 km
Inclination: 97.6 °
Period: 97.6 minutes
Semi major axis: 7021 km
RCS: Unknown
Launch date: November 21, 2013
Source: (TBD)
Launch site: Orenburg, Russia (OREN)
Uplink (MHz):
Downlink (MHz): 437.445
Beacon (MHz):
Mode: 1k2AFSK 9k6FSK
Call sign: CUBEB2-6
Status: Active

Your satellite tracking list
Your tracking list is empty





NASA's NSSDC Master Catalog

Two Line Element Set (TLE):
1 39440U 13066AA  17119.95862405 +.00000346 +00000-0 +55227-4 0  9992
2 39440 097.6335 154.0854 0082421 096.8332 264.2264 14.75420983183786
Source of the keplerian elements: Caltech